• In Uzbekistan
  • List of Countries
  • For 7 days
  • Water Temperature
  • Satellite Maps
  • Weather Map
  • Weather Widgets
  • user-avatar
    Login

    Hourly Weather Elbasan

    Today, 23 August, Wednesday

    Time Temperature Precipitation Wind Pressure Humidity
    00:00 +18°C° 0 mm 2 mps 735 mmHg 54%
    01:00 +17°C° 0 mm 2 mps 735 mmHg 54%
    02:00 +17°C° 0 mm 2 mps 735 mmHg 55%
    03:00 +17°C° 0 mm 2 mps 735 mmHg 56%
    04:00 +16°C° 0 mm 2 mps 735 mmHg 57%
    05:00 +18°C° 0 mm 2 mps 735 mmHg 53%
    06:00 +20°C° 0 mm 2 mps 735 mmHg 49%
    07:00 +23°C° 0 mm 2 mps 736 mmHg 45%
    08:00 +25°C° 0 mm 1 mps 736 mmHg 40%
    09:00 +27°C° 0 mm 1 mps 736 mmHg 35%
    10:00 +29°C° 0 mm 1 mps 736 mmHg 31%
    11:00 +30°C° 0 mm 2 mps 736 mmHg 28%
    12:00 +30°C° 0 mm 3 mps 736 mmHg 26%
    13:00 +32°C° 0 mm 4 mps 736 mmHg 24%
    14:00 +30°C° 0 mm 4 mps 736 mmHg 26%
    15:00 +30°C° 0 mm 4 mps 736 mmHg 27%
    16:00 +29°C° 0 mm 4 mps 736 mmHg 28%
    17:00 +27°C° 0 mm 3 mps 736 mmHg 36%
    18:00 +24°C° 0 mm 2 mps 736 mmHg 44%
    19:00 +21°C° 0 mm 2 mps 736 mmHg 52%
    20:00 +21°C° 0 mm 1 mps 736 mmHg 53%
    21:00 +20°C° 0 mm 1 mps 737 mmHg 54%
    22:00 +20°C° 0 mm 1 mps 737 mmHg 55%
    23:00 +20°C° 0 mm 1 mps 737 mmHg 54%

    Tomorrow, 24 August, Thursday

    Time Temperature Precipitation Wind Pressure Humidity
    00:00 +19°C° 0 mm 1 mps 737 mmHg 53%
    01:00 +18°C° 0 mm 2 mps 737 mmHg 52%
    02:00 +18°C° 0 mm 2 mps 737 mmHg 53%
    03:00 +18°C° 0 mm 2 mps 737 mmHg 53%
    04:00 +17°C° 0 mm 2 mps 737 mmHg 53%
    05:00 +19°C° 0 mm 2 mps 738 mmHg 50%
    06:00 +21°C° 0 mm 2 mps 738 mmHg 47%
    07:00 +23°C° 0 mm 2 mps 738 mmHg 44%
    08:00 +26°C° 0 mm 2 mps 738 mmHg 39%
    09:00 +28°C° 0 mm 1 mps 739 mmHg 34%
    10:00 +30°C° 0 mm 1 mps 739 mmHg 29%
    11:00 +31°C° 0 mm 2 mps 739 mmHg 27%
    12:00 +32°C° 0 mm 2 mps 738 mmHg 25%
    13:00 +34°C° 0 mm 3 mps 738 mmHg 23%
    14:00 +33°C° 0 mm 3 mps 738 mmHg 23%
    15:00 +33°C° 0 mm 3 mps 738 mmHg 23%
    16:00 +33°C° 0 mm 3 mps 737 mmHg 23%
    17:00 +29°C° 0 mm 3 mps 738 mmHg 29%
    18:00 +26°C° 0 mm 2 mps 738 mmHg 35%
    19:00 +23°C° 0 mm 1 mps 738 mmHg 41%
    20:00 +23°C° 0 mm 2 mps 738 mmHg 40%
    21:00 +21°C° 0 mm 2 mps 739 mmHg 39%
    22:00 +21°C° 0 mm 2 mps 739 mmHg 38%
    23:00 +21°C° 0 mm 2 mps 739 mmHg 37%

    Day after tomorrow, 25 August, Friday

    Time Temperature Precipitation Wind Pressure Humidity
    00:00 +20°C° 0 mm 2 mps 739 mmHg 35%
    01:00 +20°C° 0 mm 2 mps 739 mmHg 34%
    02:00 +20°C° 0 mm 2 mps 739 mmHg 34%
    03:00 +20°C° 0 mm 2 mps 738 mmHg 33%
    04:00 +19°C° 0 mm 2 mps 738 mmHg 33%
    05:00 +21°C° 0 mm 2 mps 739 mmHg 32%
    06:00 +24°C° 0 mm 2 mps 739 mmHg 31%
    07:00 +25°C° 0 mm 2 mps 739 mmHg 31%
    08:00 +28°C° 0 mm 2 mps 739 mmHg 27%
    09:00 +30°C° 0 mm 2 mps 739 mmHg 23%
    10:00 +33°C° 0 mm 1 mps 739 mmHg 20%
    11:00 +34°C° 0 mm 2 mps 739 mmHg 19%
    12:00 +35°C° 0 mm 2 mps 738 mmHg 18%
    13:00 +36°C° 0 mm 3 mps 738 mmHg 16%
    14:00 +36°C° 0 mm 3 mps 738 mmHg 17%
    15:00 +35°C° 0 mm 3 mps 737 mmHg 18%
    16:00 +35°C° 0 mm 3 mps 737 mmHg 18%
    17:00 +31°C° 0 mm 3 mps 737 mmHg 24%
    18:00 +28°C° 0 mm 2 mps 737 mmHg 29%
    19:00 +25°C° 0 mm 1 mps 737 mmHg 34%
    20:00 +24°C° 0 mm 1 mps 737 mmHg 34%
    21:00 +24°C° 0 mm 1 mps 738 mmHg 33%
    22:00 +23°C° 0 mm 2 mps 738 mmHg 32%
    23:00 +23°C° 0 mm 2 mps 738 mmHg 32%

    26 August, Saturday

    Time Temperature Precipitation Wind Pressure Humidity
    00:00 +21°C° 0 mm 2 mps 738 mmHg 31%
    01:00 +21°C° 0 mm 2 mps 738 mmHg 31%
    02:00 +21°C° 0 mm 2 mps 737 mmHg 31%
    03:00 +20°C° 0 mm 2 mps 737 mmHg 32%
    04:00 +20°C° 0 mm 2 mps 737 mmHg 33%
    05:00 +23°C° 0 mm 2 mps 737 mmHg 33%
    06:00 +24°C° 0 mm 2 mps 738 mmHg 32%
    07:00 +26°C° 0 mm 2 mps 738 mmHg 32%
    08:00 +29°C° 0 mm 2 mps 738 mmHg 28%
    09:00 +31°C° 0 mm 1 mps 738 mmHg 23%
    10:00 +34°C° 0 mm 1 mps 738 mmHg 19%
    11:00 +35°C° 0 mm 2 mps 737 mmHg 18%
    12:00 +36°C° 0 mm 2 mps 737 mmHg 17%
    13:00 +37°C° 0 mm 3 mps 737 mmHg 16%
    14:00 +36°C° 0 mm 3 mps 736 mmHg 16%
    15:00 +36°C° 0 mm 3 mps 736 mmHg 17%
    16:00 +36°C° 0 mm 3 mps 736 mmHg 18%
    17:00 +32°C° 0 mm 2 mps 736 mmHg 23%
    18:00 +29°C° 0 mm 2 mps 736 mmHg 29%
    19:00 +25°C° 0 mm 1 mps 736 mmHg 35%
    20:00 +25°C° 0 mm 1 mps 736 mmHg 35%
    21:00 +24°C° 0 mm 1 mps 736 mmHg 35%
    22:00 +24°C° 0 mm 1 mps 736 mmHg 35%
    23:00 +24°C° 0 mm 1 mps 736 mmHg 35%

    27 August, Sunday

    Time Temperature Precipitation Wind Pressure Humidity
    00:00 +23°C° 0 mm 1 mps 736 mmHg 36%
    01:00 +23°C° 0 mm 2 mps 736 mmHg 36%
    02:00 +23°C° 0 mm 2 mps 736 mmHg 36%
    03:00 +23°C° 0 mm 1 mps 736 mmHg 37%
    04:00 +22°C° 0 mm 1 mps 736 mmHg 38%
    05:00 +24°C° 0 mm 1 mps 736 mmHg 36%
    06:00 +26°C° 0 mm 1 mps 736 mmHg 34%
    07:00 +27°C° 0 mm 1 mps 736 mmHg 33%
    08:00 +30°C° 0 mm 1 mps 736 mmHg 28%
    09:00 +32°C° 0 mm 1 mps 736 mmHg 24%
    10:00 +35°C° 0 mm 1 mps 736 mmHg 19%
    11:00 +36°C° 0 mm 2 mps 736 mmHg 18%
    12:00 +37°C° 0 mm 2 mps 735 mmHg 18%
    13:00 +38°C° 0 mm 3 mps 735 mmHg 17%
    14:00 +37°C° 0 mm 3 mps 735 mmHg 17%
    15:00 +37°C° 0 mm 3 mps 735 mmHg 18%
    16:00 +36°C° 0 mm 3 mps 734 mmHg 19%
    17:00 +32°C° 0 mm 2 mps 734 mmHg 24%
    18:00 +29°C° 0 mm 2 mps 734 mmHg 30%
    19:00 +26°C° 0 mm 1 mps 734 mmHg 35%
    20:00 +26°C° 0 mm 1 mps 735 mmHg 35%
    21:00 +25°C° 0 mm 1 mps 735 mmHg 35%
    22:00 +25°C° 0 mm 1 mps 735 mmHg 34%
    23:00 +25°C° 0 mm 1 mps 735 mmHg 34%

    28 August, Monday

    Time Temperature Precipitation Wind Pressure Humidity
    00:00 +24°C° 0 mm 1 mps 735 mmHg 34%
    01:00 +24°C° 0 mm 1 mps 735 mmHg 34%
    02:00 +24°C° 0 mm 1 mps 734 mmHg 34%
    03:00 +23°C° 0 mm 1 mps 734 mmHg 35%
    04:00 +23°C° 0 mm 1 mps 734 mmHg 35%
    05:00 +25°C° 0 mm 1 mps 735 mmHg 34%
    06:00 +26°C° 0 mm 1 mps 735 mmHg 32%
    07:00 +28°C° 0 mm 1 mps 735 mmHg 31%
    08:00 +31°C° 0 mm 1 mps 735 mmHg 27%
    09:00 +33°C° 0 mm 1 mps 735 mmHg 23%
    10:00 +35°C° 0 mm 1 mps 735 mmHg 19%
    11:00 +37°C° 0 mm 2 mps 735 mmHg 18%
    12:00 +38°C° 0 mm 2 mps 734 mmHg 17%
    13:00 +39°C° 0 mm 3 mps 734 mmHg 16%
    14:00 +38°C° 0 mm 3 mps 734 mmHg 18%
    15:00 +37°C° 0 mm 3 mps 733 mmHg 19%
    16:00 +37°C° 0 mm 3 mps 733 mmHg 20%
    17:00 +34°C° 0 mm 3 mps 733 mmHg 27%
    18:00 +29°C° 0 mm 2 mps 733 mmHg 35%
    19:00 +26°C° 0 mm 1 mps 733 mmHg 42%
    20:00 +26°C° 0 mm 1 mps 734 mmHg 41%
    21:00 +26°C° 0 mm 1 mps 734 mmHg 40%
    22:00 +25°C° 0 mm 1 mps 734 mmHg 40%
    23:00 +25°C° 0 mm 1 mps 734 mmHg 38%
    Show more